CST210 HTTG-HTPE

Flight info

Callsign CST210
Flight time N/A
Altitude 5500
Route HTTG HTPE
Aircraft C152/L-SDE2E3GHIJ1J3J4J5LM1ORWXYZ/LB1D1

Departure

Time N/A
Airport Tanga Airport (HTTG)

Arrival

Time 2026-04-19 15:13
Airport Pemba Airport (HTPE)
Time Latitude Longitude Altitude Speed Heading
2026-04-19 14:48 -5.23067 39.46241 0 ft 109 kts 103°
2026-04-19 14:48 -5.23230 39.46981 0 ft 109 kts 103°
2026-04-19 14:48 -5.23394 39.47719 0 ft 108 kts 103°
2026-04-19 14:49 -5.23555 39.48445 0 ft 108 kts 103°
2026-04-19 14:49 -5.23717 39.49179 0 ft 108 kts 103°
2026-04-19 14:49 -5.23879 39.49912 0 ft 107 kts 103°
2026-04-19 14:49 -5.24030 39.50633 0 ft 107 kts 97°
2026-04-19 14:50 -5.23819 39.51319 0 ft 105 kts 47°
2026-04-19 14:50 -5.23340 39.51858 0 ft 103 kts 52°
2026-04-19 14:50 -5.22920 39.52444 0 ft 103 kts 53°
2026-04-19 14:50 -5.22507 39.53024 0 ft 103 kts 53°
2026-04-19 14:51 -5.22085 39.53615 0 ft 106 kts 53°
2026-04-19 14:51 -5.21660 39.54208 0 ft 107 kts 53°
2026-04-19 14:51 -5.21226 39.54815 0 ft 109 kts 53°
2026-04-19 14:51 -5.20783 39.55433 0 ft 109 kts 53°
2026-04-19 14:52 -5.20345 39.56045 0 ft 110 kts 53°
2026-04-19 14:52 -5.19899 39.56666 0 ft 110 kts 53°
2026-04-19 14:52 -5.19452 39.57290 0 ft 110 kts 53°
2026-04-19 14:52 -5.19007 39.57911 0 ft 110 kts 53°
2026-04-19 14:53 -5.18563 39.58530 0 ft 110 kts 53°
2026-04-19 14:53 -5.18116 39.59154 0 ft 110 kts 53°
2026-04-19 14:53 -5.17669 39.59777 0 ft 110 kts 53°
2026-04-19 14:53 -5.17222 39.60400 0 ft 110 kts 53°
2026-04-19 14:54 -5.16779 39.61017 0 ft 110 kts 53°
2026-04-19 14:54 -5.16332 39.61640 0 ft 110 kts 53°
2026-04-19 14:54 -5.15884 39.62265 0 ft 110 kts 53°
2026-04-19 14:54 -5.15437 39.62887 0 ft 110 kts 53°
2026-04-19 14:55 -5.14990 39.63511 0 ft 110 kts 53°
2026-04-19 14:55 -5.14555 39.64118 0 ft 110 kts 53°
2026-04-19 14:55 -5.14108 39.64740 0 ft 110 kts 53°
2026-04-19 14:55 -5.13660 39.65364 0 ft 110 kts 53°
2026-04-19 14:56 -5.13215 39.65985 0 ft 110 kts 53°
2026-04-19 14:56 -5.12768 39.66607 0 ft 110 kts 53°
2026-04-19 14:56 -5.12320 39.67231 0 ft 110 kts 53°
2026-04-19 14:56 -5.11877 39.67848 0 ft 110 kts 53°
2026-04-19 14:57 -5.11430 39.68471 0 ft 110 kts 53°
2026-04-19 14:57 -5.10981 39.69097 0 ft 110 kts 53°
2026-04-19 14:57 -5.10534 39.69719 0 ft 110 kts 53°
2026-04-19 14:57 -5.10092 39.70334 0 ft 110 kts 53°
2026-04-19 14:58 -5.09640 39.70964 0 ft 111 kts 53°
2026-04-19 14:58 -5.09197 39.71581 0 ft 111 kts 53°
2026-04-19 14:58 -5.09045 39.71793 0 ft 111 kts 53°
2026-04-19 14:58 -5.08333 39.72786 0 ft 106 kts 53°
2026-04-19 14:59 -5.08190 39.72985 0 ft 109 kts 53°
2026-04-19 14:59 -5.07902 39.73386 0 ft 104 kts 53°
2026-04-19 14:59 -5.07002 39.74639 0 ft 118 kts 53°
2026-04-19 14:59 -5.06686 39.75079 0 ft 120 kts 53°
2026-04-19 15:00 -5.06362 39.75529 0 ft 121 kts 53°
2026-04-19 15:00 -5.05867 39.76216 0 ft 122 kts 53°
2026-04-19 15:00 -5.05537 39.76674 0 ft 122 kts 53°
2026-04-19 15:00 -5.04871 39.77599 0 ft 123 kts 53°
2026-04-19 15:01 -5.04041 39.78750 0 ft 124 kts 53°
2026-04-19 15:01 -5.03708 39.79213 0 ft 124 kts 53°
2026-04-19 15:01 -5.03208 39.79907 0 ft 124 kts 53°
2026-04-19 15:01 -5.02703 39.80607 0 ft 125 kts 53°
2026-04-19 15:02 -5.02034 39.81537 0 ft 125 kts 53°
2026-04-19 15:02 -5.01533 39.82232 0 ft 120 kts 53°
2026-04-19 15:02 -5.01300 39.82975 0 ft 112 kts 104°
2026-04-19 15:02 -5.01576 39.83687 0 ft 108 kts 123°
2026-04-19 15:03 -5.02112 39.84183 0 ft 104 kts 143°
2026-04-19 15:03 -5.02677 39.84638 0 ft 103 kts 143°
2026-04-19 15:03 -5.03256 39.85059 0 ft 102 kts 149°
2026-04-19 15:03 -5.03815 39.85481 0 ft 103 kts 135°
2026-04-19 15:04 -5.04164 39.86097 0 ft 103 kts 111°
2026-04-19 15:04 -5.04383 39.86779 0 ft 103 kts 108°
2026-04-19 15:04 -5.04598 39.87450 0 ft 102 kts 116°
2026-04-19 15:04 -5.05174 39.87793 0 ft 98 kts 172°
2026-04-19 15:05 -5.05837 39.87906 0 ft 98 kts 173°
2026-04-19 15:05 -5.06514 39.87990 0 ft 98 kts 184°
2026-04-19 15:05 -5.07189 39.87935 0 ft 97 kts 194°
2026-04-19 15:05 -5.07834 39.87743 0 ft 96 kts 204°
2026-04-19 15:06 -5.08456 39.87488 0 ft 97 kts 205°
2026-04-19 15:06 -5.08865 39.87319 0 ft 97 kts 205°
2026-04-19 15:06 -5.09688 39.86979 0 ft 97 kts 205°
2026-04-19 15:06 -5.10307 39.86725 0 ft 97 kts 204°
2026-04-19 15:07 -5.10930 39.86469 0 ft 97 kts 204°
2026-04-19 15:07 -5.11553 39.86214 0 ft 97 kts 204°
2026-04-19 15:07 -5.12175 39.85959 0 ft 97 kts 204°
2026-04-19 15:07 -5.12797 39.85706 0 ft 97 kts 204°
2026-04-19 15:08 -5.13416 39.85452 0 ft 97 kts 204°
2026-04-19 15:08 -5.14037 39.85200 0 ft 97 kts 204°
2026-04-19 15:08 -5.14652 39.84950 0 ft 97 kts 204°
2026-04-19 15:08 -5.15277 39.84696 0 ft 97 kts 205°
2026-04-19 15:09 -5.15870 39.84455 0 ft 97 kts 204°
2026-04-19 15:09 -5.16497 39.84202 0 ft 97 kts 204°
2026-04-19 15:09 -5.17120 39.83949 0 ft 97 kts 204°
2026-04-19 15:09 -5.17737 39.83715 0 ft 97 kts 198°
2026-04-19 15:10 -5.18392 39.83539 0 ft 97 kts 197°
2026-04-19 15:10 -5.19042 39.83368 0 ft 96 kts 197°
2026-04-19 15:10 -5.19690 39.83198 0 ft 101 kts 197°
2026-04-19 15:10 -5.20416 39.83003 0 ft 115 kts 197°
2026-04-19 15:11 -5.21207 39.82807 0 ft 120 kts 193°
2026-04-19 15:11 -5.22007 39.82625 0 ft 116 kts 196°
2026-04-19 15:11 -5.22756 39.82382 0 ft 111 kts 202°
2026-04-19 15:11 -5.23450 39.82093 0 ft 106 kts 205°
2026-04-19 15:12 -5.24113 39.81804 0 ft 104 kts 201°
2026-04-19 15:12 -5.24766 39.81525 0 ft 96 kts 204°
2026-04-19 15:12 -5.25358 39.81295 0 ft 86 kts 204°
2026-04-19 15:12 -5.25865 39.81078 0 ft 72 kts 208°
2026-04-19 15:13 -5.26107 39.80984 0 ft 10 kts 136°
2026-04-19 15:13 -5.26067 39.81003 0 ft 9 kts 19°
2026-04-19 15:13 -5.25994 39.81044 0 ft 14 kts 50°
2026-04-19 15:13 -5.25988 39.81051 0 ft 0 kts 60°
2026-04-19 15:14 -5.25987 39.81053 0 ft 2 kts 50°
2026-04-19 15:14 -5.25970 39.81100 0 ft 13 kts 82°
2026-04-19 15:14 -5.25954 39.81182 0 ft 12 kts 76°
2026-04-19 15:14 -5.25940 39.81231 0 ft 11 kts 71°
2026-04-19 15:15 -5.25918 39.81273 0 ft 1 kts 84°
2026-04-19 15:15 -5.25925 39.81292 0 ft 0 kts 127°